Volver al catálogo

FENGYUN 1C DEB

ActivoPO
NORAD 31631·DEBRIS·🇨🇳 China

Lanzado May 10, 1999 desde Taiyuan Satellite Launch Center

Loading…

Próximos Pases (próximas 24 horas)

TLE

ActualizadoSource: Space-Track

Época: Sep 14, 2026, 04:10 UTC

1 31631U 99025CAM 26257.17424343  .00250440  00000-0  88546-2 0  9997
2 31631  99.3074 224.3071 0025787 142.2783 218.0265 15.27790357680849

Sigue FENGYUN 1C DEB en tiempo real con AllMySat

Download on the App Store